#timestamp,LO_Frequency,Hit,StdDev 
1635051615.1,286046996.8,N
1635051635.9,286046999.6,N
1635051655.7,286046997.7,N
1635051675.5,286046996.8,N
1635051695.4,286046996.5,N
1635051715.2,286046997.4,N
1635051735.0,286046997.2,N
1635051735.9,286046997.2,N
1635051755.8,286046995.3,Y
1635051775.6,286046998.5,P
1635051795.5,286046998.6,N
1635051815.3,286047000.6,N
1635051835.1,286047001.0,N
1635051855.9,286047001.1,N
1635051875.7,286047000.7,N
1635051895.5,286047000.8,N
1635051915.4,286046998.2,N
1635051935.2,286046998.2,N
1635051955.0,286046998.5,N
1635051955.9,286046998.5,N
1635051975.8,286046998.3,N
1635051995.6,286046998.1,N
1635052015.4,286047001.2,N
1635052035.3,286047000.9,N
1635052055.1,286046999.0,N
1635052056.0,286046999.0,N
1635052075.8,286047000.6,N
1635052095.7,286047000.8,N
1635052115.5,286047001.2,N
1635052135.3,286047000.7,N
1635052155.2,286046998.7,N
1635052175.9,286046998.3,N
1635052195.7,286047001.2,N
1635052215.6,286046999.3,N
1635052235.4,286046997.4,N
1635052255.2,286046997.4,N
1635052275.0,286046999.2,N
1635052276.0,286046999.2,N
1635052295.8,286046999.4,N
1635052315.6,286046998.3,N
1635052335.5,286047001.2,N
1635052355.3,286046999.0,N
1635052375.1,286046997.4,N
1635052395.9,286046997.1,N
1635052415.7,286046997.4,N
1635052435.5,286046994.9,Y
1635052485.4,286046998.5,E
1635052495.3,286047000.0,N
1635052515.1,286046999.8,P
1635052535.9,286047000.3,N
1635052555.7,286046998.1,Y
1635052575.5,286046999.3,P
1635052595.4,286046998.2,P
1635052615.2,286047000.9,N
1635052635.0,286046998.6,N
1635052635.9,286046998.6,N
1635052655.8,286047000.7,N
1635052675.6,286047000.8,N
1635052695.4,286047001.1,N
1635052715.3,286046999.0,N
1635052735.1,286046999.3,N
1635052755.8,286046998.4,N
1635052775.7,286047000.3,N
1635052795.5,286047000.6,N
1635052815.3,286047001.2,N
1635052835.2,286046998.2,N
1635052855.0,286046999.3,N
1635052855.9,286046999.3,N
1635052875.7,286046998.6,N
1635052895.6,286046998.4,N
1635052915.4,286046998.4,N
1635052935.2,286046997.0,N
1635052955.1,286046996.5,Y
1635052956.0,286046996.5,P
1635052975.8,286046999.0,N
1635052995.6,286046998.3,N
1635053015.5,286046998.7,N
1635053035.3,286046999.4,N
1635053055.1,286046999.0,N
1635053075.9,286046999.1,N
1635053095.7,286047001.0,N
1635053115.5,286046998.4,N
1635053135.4,286046998.3,N
1635053155.2,286046998.3,N
1635053175.0,286046998.8,N
1635053175.9,286046998.8,N
1635053195.8,286046998.8,N
1635053215.6,286047000.6,N
1635053235.4,286047002.7,N
1635053255.3,286047002.7,N
1635053305.1,286047000.9,E
1635053315.1,286047000.9,N
1635053316.0,286047000.9,P
1635053335.8,286047001.1,P
1635053355.6,286046998.1,Y
1635053375.5,286046999.0,P
1635053395.3,286046998.1,N
1635053415.1,286046998.6,N
1635053435.9,286046998.1,N
1635053455.7,286047000.5,N
1635053475.5,286047000.6,N
1635053495.4,286047002.3,N
1635053515.2,286047000.1,N
1635053535.0,286047002.6,N
1635053535.9,286047002.6,N
1635053555.8,286047001.8,N
1635053575.6,286047001.7,N
1635053595.4,286047001.8,N
1635053615.3,286047004.3,N
1635053635.1,286047001.4,N
1635053655.8,286047002.5,N
1635053675.7,286047003.5,N
1635053695.5,286047003.8,N
1635053715.3,286047005.6,Y
1635053735.2,286047002.0,P
1635053755.0,286047001.4,P
1635053755.9,286047001.4,P
1635053775.7,286047004.0,Y
1635053795.6,286047000.9,P
1635053815.4,286047000.5,N
1635053835.2,286047002.1,P
1635053855.1,286046999.8,N
1635053856.0,286046999.8,N
1635053875.8,286047000.9,N
1635053895.7,286047002.8,Y
1635053915.5,286047000.6,P
1635053935.3,286046999.3,P
1635053955.2,286047000.4,N
1635053975.9,286046999.7,N
1635053995.7,286047002.0,Y
1635054015.6,286047002.4,P
1635054035.4,286047002.1,N
1635054055.2,286047003.5,P
1635054075.1,286047003.1,N
1635054076.0,286047003.1,N
1635054095.8,286047004.4,Y
1635054115.6,286047000.3,P
1635054135.5,286046998.4,N
1635054155.3,286046998.6,N
1635054175.1,286046998.3,N
1635054195.9,286046998.2,N
1635054215.7,286047001.2,N
1635054235.5,286047000.6,N
1635054255.4,286046999.7,N
1635054275.2,286047000.1,N
1635054295.0,286047002.8,N
1635054295.9,286047002.8,N
1635054315.8,286047004.0,N
1635054335.6,286047004.0,N
1635054355.4,286047001.6,N
1635054375.3,286047000.1,N
1635054395.1,286047000.3,N
1635054396.0,286047000.3,N
1635054415.8,286047001.5,N
1635054435.7,286047004.0,N
1635054455.5,286047003.4,N
1635054475.3,286047004.2,N
1635054495.2,286047004.1,N
1635054515.9,286047001.5,N
1635054535.7,286047002.6,N
1635054555.6,286047002.2,N
1635054575.4,286047004.3,N
1635054595.2,286047001.3,N
1635054615.1,286047002.6,N
1635054616.0,286047002.6,N
1635054635.8,286047002.6,N
1635054655.6,286047002.4,N
1635054675.5,286047002.6,N
1635054695.3,286047003.5,N
1635054715.1,286047002.9,N
1635054735.9,286047004.8,Y
1635054755.7,286047003.7,P
1635054775.5,286047004.2,P
1635054795.4,286047004.2,P
1635054815.2,286047001.4,N
1635054835.0,286047004.4,Y
1635054835.9,286047004.4,P
1635054855.8,286046998.2,N
1635054875.6,286046999.9,N
1635054895.4,286046999.8,N
1635054915.3,286047002.7,N
1635054935.1,286047001.9,N
1635054955.8,286047003.9,N
1635054975.7,286047004.4,N
1635054995.5,286047004.4,N
1635055015.3,286047002.6,N
1635055035.2,286047002.7,N
1635055055.0,286047001.3,N
1635055055.9,286047001.3,N
1635055075.8,286047001.6,N
1635055095.6,286047001.3,N
1635055115.4,286047002.3,N
1635055135.3,286047004.4,N
1635055155.1,286047005.5,Y
1635055156.0,286047005.5,P
1635055175.8,286047001.3,N
1635055195.7,286047001.3,N
